Regional Weather Roundup
Issued by NWS

Home | Current Version | Previous Version | Text Only | Print | Product List | Glossary Off
Versions: 1 2 3 4 5 6 7 8 9 10 11 12 13 14 15 16 17 18 19 20 21 22 23 24 25 26 27 28 29 30 31 32 33 34 35 36 37 38 39 40 41 42 43 44 45 46 47 48 49 50

000
ASUS45 KBOI 221910
RWRID

IDAHO REGIONAL WEATHER ROUNDUP
NATIONAL WEATHER SERVICE BOISE ID
100 PM MDT FRI MAY 22 2015

NOTE: "FAIR" INDICATES FEW OR NO CLOUDS BELOW 12000 FEET
WITH NO SIGNIFICANT WEATHER AND/OR OBSTRUCTIONS TO VISIBILITY

IDZ012-014-222000-
SOUTHWEST IDAHO


CITY           SKY/WX    TMP DP  RH WIND       PRES   REMARKS
BOISE          MOSUNNY   67  49  52 SW3       29.87F
CALDWELL       MOSUNNY   70  48  46 NW6       29.87F
MOUNTAIN HOME  PTSUNNY   67  46  46 SE14      29.88F
$$

IDZ016-017-222000-
SOUTHCENTRAL IDAHO


CITY           SKY/WX    TMP DP  RH WIND       PRES   REMARKS
BURLEY         RAIN      56  49  77 NW6       29.88F
JEROME         PTSUNNY   60  49  66 W7        29.91F
TWIN FALLS     PTSUNNY   61  48  62 SW7       29.89F
$$

IDZ019>023-222000-
SOUTHEAST IDAHO


CITY           SKY/WX    TMP DP  RH WIND       PRES   REMARKS
IDAHO FALLS    PTSUNNY   62  43  49 N6        29.90F
POCATELLO      PTSUNNY   58  46  64 S20       29.91F THUNDER
REXBURG        PTSUNNY   62  43  49 CALM      29.90F
$$

IDZ006-010-011-018-031-032-222000-
CENTRAL IDAHO MOUNTAINS


CITY           SKY/WX    TMP DP  RH WIND       PRES   REMARKS
MCCALL         PTSUNNY   60  44  55 CALM      29.90F
HAILEY         PTSUNNY   54  48  82 SE12      29.95F
STANLEY          N/A     53  42  66 N3        29.97F
SALMON         PTSUNNY   64  41  42 CALM      29.87F
CHALLIS        CLOUDY    60  43  53 NE6       29.91F
$$

IDZ002-004-006-007-026-222000-
NORTHERN IDAHO


CITY           SKY/WX    TMP DP  RH WIND       PRES   REMARKS
LEWISTON       MOSUNNY   76  54  46 VRB5      29.83F
LOWELL           N/A     77  46  33 CALM      29.79F
COEUR D`ALENE  SUNNY     77  46  33 CALM      29.83F
MULLAN PASS    MOSUNNY   62  31  31 VRB3      29.99S
$$


USA.gov is the U.S. government's official web portal to all federal, state and local government web resources and services.